�������l�o���
Date,Time,MP-1(��Sv/h),MP-2(��Sv/h),MP-3(��Sv/h),MP-4(��Sv/h),MP-5(��Sv/h),MP-6(��Sv/h),MP-7(��Sv/h),MP-8(��Sv/h),����,����(m/s),���J
2022/04/30,00:00,0.546,0.805,0.525,0.987,0.681,0.339,0.578,0.554,�k��,9.9,�L
2022/04/30,00:10,0.548,0.807,0.524,0.988,0.681,0.339,0.578,0.553,�k�k��,11.4,�L
2022/04/30,00:20,0.547,0.806,0.526,0.987,0.682,0.338,0.579,0.554,�k�k��,9.3,�L
2022/04/30,00:30,0.547,0.806,0.526,0.988,0.683,0.338,0.580,0.553,�k�k��,10.4,�L
2022/04/30,00:40,0.547,0.807,0.524,0.987,0.683,0.340,0.579,0.554,�k�k��,9.7,�L
2022/04/30,00:50,0.548,0.805,0.525,0.989,0.684,0.337,0.580,0.553,�k�k��,10.1,�L
2022/04/30,01:00,0.548,0.808,0.524,0.989,0.683,0.339,0.580,0.552,�k�k��,7.8,�L
2022/04/30,01:10,0.548,0.808,0.526,0.990,0.683,0.339,0.580,0.552,�k�k��,7.5,�L
2022/04/30,01:20,0.549,0.807,0.525,0.991,0.685,0.338,0.580,0.551,�k�k��,9.4,�L
2022/04/30,01:30,0.549,0.807,0.525,0.991,0.684,0.338,0.579,0.551,�k�k��,9.3,�L
2022/04/30,01:40,0.550,0.810,0.526,0.992,0.684,0.338,0.580,0.553,�k�k��,10.2,�L
2022/04/30,01:50,0.548,0.809,0.526,0.992,0.686,0.339,0.580,0.554,�k�k��,9.8,�L
2022/04/30,02:00,0.549,0.809,0.526,0.992,0.686,0.339,0.581,0.553,�k�k��,8.4,�L
2022/04/30,02:10,0.548,0.810,0.527,0.995,0.686,0.340,0.580,0.553,�k�k��,8.9,�L
2022/04/30,02:20,0.548,0.808,0.525,0.993,0.686,0.340,0.581,0.554,�k�k��,8.4,�L
2022/04/30,02:30,0.549,0.811,0.525,0.994,0.686,0.339,0.581,0.553,�k�k��,7.6,�L
2022/04/30,02:40,0.549,0.811,0.526,0.994,0.688,0.339,0.581,0.552,�k�k��,8.1,�L
2022/04/30,02:50,0.548,0.809,0.526,0.994,0.687,0.338,0.582,0.553,�k�k��,7.6,�L
2022/04/30,03:00,0.547,0.813,0.526,0.995,0.686,0.338,0.583,0.554,�k�k��,7.7,��
2022/04/30,03:10,0.547,0.811,0.526,0.996,0.687,0.337,0.582,0.553,�k�k��,9.2,��
2022/04/30,03:20,0.549,0.811,0.526,0.996,0.688,0.337,0.581,0.553,�k�k��,9.2,��
2022/04/30,03:30,0.549,0.809,0.524,0.997,0.687,0.337,0.582,0.554,�k�k��,9.7,��
2022/04/30,03:40,0.548,0.812,0.525,0.996,0.690,0.336,0.582,0.554,�k��,8.6,�L
2022/04/30,03:50,0.548,0.814,0.526,0.998,0.689,0.338,0.583,0.551,�k�k��,9.3,�L
2022/04/30,04:00,0.547,0.815,0.525,0.996,0.689,0.336,0.583,0.552,�k�k��,9.2,�L
2022/04/30,04:10,0.550,0.813,0.526,0.997,0.690,0.336,0.582,0.553,�k�k��,9.1,�L
2022/04/30,04:20,0.550,0.812,0.526,0.997,0.691,0.336,0.582,0.554,�k�k��,8.7,��
2022/04/30,04:30,0.550,0.815,0.525,0.998,0.691,0.338,0.582,0.553,�k�k��,6.6,��
2022/04/30,04:40,0.550,0.814,0.526,0.999,0.691,0.336,0.583,0.552,�k��,7.4,��
2022/04/30,04:50,0.549,0.813,0.524,0.997,0.691,0.337,0.583,0.554,�k��,7.3,��
2022/04/30,05:00,0.549,0.813,0.525,0.999,0.692,0.337,0.583,0.554,�k�k��,7.5,��
2022/04/30,05:10,0.549,0.813,0.527,0.999,0.692,0.337,0.583,0.553,�k��,6.8,��
2022/04/30,05:20,0.551,0.814,0.525,0.999,0.692,0.337,0.583,0.553,�k��,7.4,��
2022/04/30,05:30,0.550,0.813,0.526,1.002,0.692,0.338,0.584,0.554,�k�k��,6.8,��
2022/04/30,05:40,0.551,0.815,0.526,0.999,0.692,0.338,0.585,0.555,�k�k��,8.5,��
2022/04/30,05:50,0.549,0.814,0.527,1.001,0.692,0.338,0.585,0.553,�k�k��,9.9,��
2022/04/30,06:00,0.549,0.815,0.528,1.001,0.692,0.337,0.583,0.553,�k�k��,9.4,��
2022/04/30,06:10,0.551,0.815,0.526,1.000,0.694,0.338,0.584,0.554,�k�k��,8.9,��
2022/04/30,06:20,0.550,0.814,0.527,1.000,0.693,0.337,0.582,0.554,�k�k��,8.6,��
2022/04/30,06:30,0.551,0.814,0.526,1.000,0.692,0.337,0.584,0.554,�k��,8.8,��
2022/04/30,06:40,0.550,0.817,0.528,1.004,0.695,0.338,0.585,0.554,�k�k��,7.2,��
2022/04/30,06:50,0.553,0.817,0.527,1.003,0.693,0.338,0.586,0.554,�k�k��,5.2,��
2022/04/30,07:00,0.553,0.816,0.527,1.001,0.695,0.337,0.584,0.554,�k�k��,3.9,��
2022/04/30,07:10,0.553,0.816,0.527,1.003,0.695,0.338,0.585,0.555,�k�k��,5.3,��
2022/04/30,07:20,0.554,0.817,0.526,1.003,0.697,0.337,0.585,0.556,�k�k��,4.9,��
2022/04/30,07:30,0.554,0.820,0.526,1.001,0.696,0.340,0.587,0.555,�k,4.1,��
2022/04/30,07:40,0.554,0.817,0.528,1.004,0.697,0.337,0.587,0.555,�k,6.2,��
2022/04/30,07:50,0.555,0.819,0.528,1.003,0.698,0.336,0.586,0.555,�k�k��,6.1,��
2022/04/30,08:00,0.557,0.821,0.529,1.004,0.700,0.337,0.586,0.555,�k�k��,6.1,��
2022/04/30,08:10,0.556,0.819,0.528,1.004,0.698,0.336,0.585,0.557,�k�k��,5.4,��
2022/04/30,08:20,0.555,0.820,0.531,1.006,0.697,0.338,0.587,0.555,�k�k��,5.9,��
2022/04/30,08:30,0.555,0.821,0.528,1.005,0.698,0.337,0.587,0.554,�k,4.7,��
2022/04/30,08:40,0.554,0.820,0.530,1.004,0.697,0.337,0.587,0.554,�k�k��,6.1,��
2022/04/30,08:50,0.557,0.821,0.531,1.007,0.700,0.339,0.587,0.553,�k�k��,7.6,��
2022/04/30,09:00,0.556,0.820,0.531,1.009,0.701,0.337,0.584,0.556,�k�k��,7.5,��
2022/04/30,09:10,0.556,0.822,0.531,1.007,0.702,0.338,0.587,0.554,�k�k��,7.5,��
2022/04/30,09:20,0.557,0.822,0.531,1.007,0.702,0.338,0.584,0.556,�k�k��,6.6,��
2022/04/30,09:30,0.558,0.822,0.531,1.008,0.701,0.339,0.583,0.557,�k�k��,6.9,��
2022/04/30,09:40,0.558,0.822,0.532,1.008,0.704,0.338,0.584,0.556,�k��,6.7,��
2022/04/30,09:50,0.558,0.823,0.530,1.007,0.704,0.338,0.584,0.555,�k��,6.7,��
2022/04/30,10:00,0.559,0.823,0.531,1.008,0.703,0.337,0.586,0.553,�k�k��,7.1,��
2022/04/30,10:10,0.558,0.824,0.531,1.009,0.703,0.338,0.587,0.554,�k�k��,5.1,��
2022/04/30,10:20,0.557,0.825,0.534,1.007,0.702,0.338,0.585,0.554,�k��,4.6,��
2022/04/30,10:30,0.559,0.826,0.534,1.008,0.703,0.337,0.586,0.555,�k�k��,4.5,��
2022/04/30,10:40,0.557,0.827,0.533,1.008,0.703,0.338,0.586,0.554,�k��,4.6,��
2022/04/30,10:50,0.559,0.827,0.534,1.008,0.704,0.339,0.585,0.556,�k��,4.7,��
2022/04/30,11:00,0.559,0.825,0.535,1.009,0.702,0.338,0.586,0.556,�k��,4.3,��
2022/04/30,11:10,0.560,0.827,0.534,1.009,0.705,0.338,0.587,0.556,�k��,4.7,��
2022/04/30,11:20,0.558,0.828,0.534,1.011,0.702,0.340,0.587,0.557,�k�k��,6.2,��
2022/04/30,11:30,0.559,0.828,0.535,1.010,0.706,0.339,0.588,0.555,�k��,5.8,��
2022/04/30,11:40,0.561,0.829,0.532,1.011,0.706,0.339,0.586,0.556,�k�k��,4.7,��
2022/04/30,11:50,0.561,0.830,0.533,1.011,0.707,0.338,0.587,0.556,�k��,4.8,��
2022/04/30,12:00,0.559,0.831,0.534,1.008,0.709,0.339,0.586,0.558,�k��,4.8,��
2022/04/30,12:10,0.560,0.830,0.534,1.008,0.708,0.338,0.587,0.555,���k��,4.5,��
2022/04/30,12:20,0.560,0.830,0.535,1.010,0.709,0.338,0.587,0.556,���k��,4.4,��
2022/04/30,12:30,0.558,0.832,0.535,1.011,0.709,0.339,0.588,0.556,�k��,4.5,��
2022/04/30,12:40,0.561,0.832,0.535,1.013,0.709,0.341,0.587,0.556,���k��,4.1,��
2022/04/30,12:50,0.560,0.832,0.534,1.009,0.709,0.341,0.589,0.557,���k��,4.5,��
2022/04/30,13:00,0.562,0.834,0.535,1.011,0.708,0.340,0.589,0.557,���k��,3.5,��
2022/04/30,13:10,0.561,0.833,0.534,1.011,0.710,0.340,0.587,0.557,���k��,3.9,��
2022/04/30,13:20,0.559,0.833,0.535,1.014,0.709,0.339,0.588,0.558,���k��,3.7,��
2022/04/30,13:30,0.560,0.833,0.535,1.010,0.709,0.340,0.587,0.557,���k��,3.1,��
2022/04/30,13:40,0.562,0.834,0.535,1.014,0.709,0.340,0.590,0.556,���k��,2.6,��
2022/04/30,13:50,0.563,0.832,0.536,1.013,0.710,0.340,0.588,0.557,��,3.5,��
2022/04/30,14:00,0.562,0.835,0.534,1.012,0.711,0.340,0.588,0.558,��,2.5,��
2022/04/30,14:10,0.562,0.832,0.537,1.013,0.713,0.341,0.588,0.556,��,2.0,��
2022/04/30,14:20,0.561,0.836,0.535,1.015,0.709,0.341,0.590,0.556,���k��,2.6,��
2022/04/30,14:30,0.562,0.836,0.535,1.015,0.710,0.341,0.589,0.557,�k�k��,2.2,��
2022/04/30,14:40,0.560,0.836,0.536,1.014,0.711,0.341,0.591,0.559,�k��,2.0,��
2022/04/30,14:50,0.562,0.837,0.537,1.011,0.712,0.342,0.591,0.556,��,1.7,��
2022/04/30,15:00,0.563,0.837,0.536,1.012,0.712,0.341,0.589,0.558,���k��,2.6,��
2022/04/30,15:10,0.562,0.836,0.537,1.012,0.713,0.342,0.591,0.557,���k��,2.6,��
2022/04/30,15:20,0.564,0.837,0.538,1.014,0.712,0.342,0.589,0.559,���k��,3.1,��
2022/04/30,15:30,0.562,0.836,0.537,1.012,0.711,0.341,0.589,0.558,���쓌,2.6,��
2022/04/30,15:40,0.563,0.837,0.537,1.012,0.713,0.341,0.589,0.558,�쓌,2.6,��
2022/04/30,15:50,0.561,0.835,0.538,1.013,0.713,0.342,0.591,0.555,���쓌,2.2,��
2022/04/30,16:00,0.564,0.836,0.536,1.011,0.713,0.342,0.590,0.558,�쓌,1.9,��
2022/04/30,16:10,0.561,0.837,0.537,1.012,0.713,0.342,0.591,0.557,��쓌,1.7,��
2022/04/30,16:20,0.563,0.839,0.536,1.012,0.713,0.341,0.592,0.557,��쓌,2.3,��
2022/04/30,16:30,0.564,0.839,0.537,1.011,0.713,0.342,0.592,0.558,��,2.6,��
2022/04/30,16:40,0.563,0.838,0.537,1.012,0.715,0.341,0.590,0.559,��쓌,3.1,��
2022/04/30,16:50,0.562,0.838,0.537,1.012,0.715,0.343,0.591,0.560,��쓌,3.2,��
2022/04/30,17:00,0.563,0.838,0.536,1.015,0.713,0.341,0.591,0.561,��쓌,3.0,��
2022/04/30,17:10,0.562,0.840,0.537,1.014,0.713,0.343,0.590,0.561,��쓌,3.3,��
2022/04/30,17:20,0.564,0.841,0.537,1.014,0.713,0.341,0.592,0.561,��쓌,3.9,��
2022/04/30,17:30,0.563,0.839,0.538,1.014,0.715,0.343,0.590,0.560,��쓌,4.6,��
2022/04/30,17:40,0.563,0.841,0.538,1.017,0.713,0.341,0.590,0.559,��쓌,5.4,��
2022/04/30,17:50,0.565,0.839,0.538,1.016,0.712,0.342,0.590,0.558,��쓌,4.5,��
2022/04/30,18:00,0.565,0.840,0.538,1.016,0.713,0.343,0.591,0.559,��,4.1,��
2022/04/30,18:10,0.565,0.840,0.540,1.017,0.715,0.341,0.590,0.561,��,3.9,��
2022/04/30,18:20,0.566,0.841,0.539,1.016,0.717,0.342,0.591,0.559,��,4.3,��
2022/04/30,18:30,0.565,0.839,0.539,1.016,0.716,0.342,0.591,0.561,��쓌,4.8,��
2022/04/30,18:40,0.565,0.841,0.538,1.017,0.715,0.343,0.593,0.560,��,5.2,��
2022/04/30,18:50,0.566,0.839,0.538,1.016,0.715,0.342,0.592,0.560,��,5.7,��
2022/04/30,19:00,0.566,0.839,0.538,1.016,0.718,0.341,0.592,0.559,��,4.4,��
2022/04/30,19:10,0.565,0.842,0.539,1.017,0.717,0.341,0.593,0.559,��,4.7,��
2022/04/30,19:20,0.563,0.840,0.539,1.014,0.717,0.342,0.593,0.559,��쐼,4.7,��
2022/04/30,19:30,0.565,0.840,0.539,1.017,0.716,0.343,0.593,0.560,��쐼,5.5,��
2022/04/30,19:40,0.565,0.840,0.540,1.016,0.717,0.342,0.593,0.559,��쐼,6.2,��
2022/04/30,19:50,0.566,0.842,0.540,1.019,0.716,0.342,0.593,0.558,��쐼,7.0,��
2022/04/30,20:00,0.564,0.840,0.539,1.017,0.716,0.340,0.592,0.559,��쐼,7.4,��
2022/04/30,20:10,0.564,0.839,0.539,1.017,0.715,0.342,0.594,0.560,��,8.4,��
2022/04/30,20:20,0.564,0.838,0.538,1.018,0.715,0.342,0.594,0.558,��,8.5,��
2022/04/30,20:30,0.564,0.841,0.539,1.016,0.716,0.341,0.593,0.560,��,9.3,��
2022/04/30,20:40,0.563,0.841,0.539,1.018,0.717,0.342,0.594,0.560,��,9.0,��
2022/04/30,20:50,0.565,0.841,0.538,1.017,0.718,0.340,0.593,0.559,��,9.3,��
2022/04/30,21:00,0.566,0.839,0.540,1.016,0.718,0.342,0.594,0.560,��,9.3,��
2022/04/30,21:10,0.564,0.840,0.539,1.017,0.717,0.341,0.591,0.559,��,8.6,��
2022/04/30,21:20,0.566,0.839,0.537,1.017,0.718,0.343,0.595,0.559,��쐼,8.4,��
2022/04/30,21:30,0.565,0.838,0.539,1.019,0.717,0.341,0.595,0.560,��쐼,9.1,��
2022/04/30,21:40,0.567,0.841,0.539,1.019,0.716,0.341,0.594,0.560,��쐼,8.8,��
2022/04/30,21:50,0.564,0.839,0.539,1.017,0.716,0.341,0.595,0.559,��쐼,8.9,��
2022/04/30,22:00,0.564,0.840,0.538,1.018,0.718,0.341,0.593,0.559,��쐼,9.1,��
2022/04/30,22:10,0.566,0.838,0.540,1.018,0.716,0.342,0.593,0.559,��쐼,7.5,��
2022/04/30,22:20,0.564,0.838,0.537,1.018,0.717,0.342,0.593,0.560,��쐼,8.3,��
2022/04/30,22:30,0.565,0.839,0.540,1.020,0.715,0.342,0.593,0.559,��쐼,8.2,��
2022/04/30,22:40,0.565,0.840,0.538,1.017,0.716,0.341,0.593,0.559,��쐼,8.1,��
2022/04/30,22:50,0.565,0.840,0.539,1.017,0.717,0.340,0.595,0.559,��,7.0,��
2022/04/30,23:00,0.564,0.839,0.538,1.017,0.716,0.342,0.594,0.559,��쐼,5.8,��
2022/04/30,23:10,0.565,0.839,0.540,1.019,0.717,0.342,0.595,0.559,��쐼,6.1,��
2022/04/30,23:20,0.565,0.839,0.538,1.017,0.716,0.343,0.593,0.561,��쐼,7.6,��
2022/04/30,23:30,0.565,0.841,0.538,1.019,0.719,0.341,0.594,0.558,��쐼,8.2,��
2022/04/30,23:40,0.564,0.839,0.538,1.018,0.716,0.341,0.592,0.558,��쐼,8.2,��
2022/04/30,23:50,0.566,0.840,0.539,1.018,0.716,0.342,0.592,0.561,��쐼,8.4,��
